User: anonymous   Login
Location: Parc des �les de St-Timoth�e
(45.2924°N, 74.0481°W)
Time: 09:29:35
(UTC-04:00)
Language:

Cosmos 2173 Rocket - Orbit

View from above orbital plane
View from above orbital plane
View from above satellite
View from above satellite

Ground track
Ground track

The orbit data is extracted from the following two-line orbital elements,

1 21797U 91081B   17117.94859201 +.00000044 +00000-0 +28952-4 0  9998
2 21797 082.9514 099.5042 0036824 227.9236 190.0448 13.77398389277213
Epoch (UTC): 27 April 2017 22:45:58
Eccentricity: 0.0036824
inclination: 82.9514°
perigee height: 946 km
apogee height: 1000 km
right ascension of ascending node: 99.5042°
argument of perigee: 227.9236°
revolutions per day: 13.77398389
mean anomaly at epoch: 190.0448°
orbit number at epoch: 27721

The dashed part of the orbit path shows where the satellite is in the earth's shadow,  

DLR